,

(GMT )
Resia Pass

Weather History for LIVE - November, 2013

Change the Weather History Date:

Saturday, November 2, 2013

  Actual Average Record
Temperature  
Mean Temperature 42 °F -  
Max Temperature 42 °F 47 °F 59 °F (1996)
Min Temperature 41 °F 32 °F 24 °F (2000)
Degree Days  
Heating Degree Days 24    
Moisture  
Dew Point 41 °F    
Average Humidity 97    
Maximum Humidity 100    
Minimum Humidity 81    
Precipitation  
Precipitation 0.00 in - - ()
Sea Level Pressure  
Sea Level Pressure 29.98 in    
Wind  
Wind Speed 6 mph ()    
Max Wind Speed 8 mph    
Max Gust Speed -    
Visibility 1.1 miles    
Events Fog    
Averages and records for this station are not official NWS values.
T = Trace of Precipitation, MM = Missing Value Source: Averaged Metar Reports

Daily Weather History Graph

Daily Weather History Graph

Search for Another Location

Airport or City:

Trip Planner

Search our weather history database for the weather conditions in past years. The results will help you decide how hot, cold, wet, or windy it might be!

Date:

Astronomy

Nov. 02, 2013 Rise Set
Actual Time 7:01 AM CET 5:00 PM CET
Civil Twilight 6:29 AM CET 5:32 PM CET
Nautical Twilight 5:54 AM CET 6:08 PM CET
Astronomical Twilight 5:18 AM CET 6:43 PM CET
Moon 5:37 AM CET (11/2) 4:23 PM CET (11/2)
Length of Visible Light 11h 02m
Length of Day
9h 58m
Waning Crescent, 2% of the Moon is Illuminated
Nov 2
Waning Crescent
Nov 3
New
Nov 10
First Quarter
Nov 17
Full
Nov 25
Last Quarter

Hourly Weather History & Observations

Time (CET) Temp. Windchill Dew Point Humidity Pressure Visibility Wind Dir Wind Speed Gust Speed Precip Events Conditions
12:55 AM 42.8 °F 39.3 °F 41.0 °F 93% 30.06 in 6.2 mi SSE 5.8 mph - N/A   Mostly Cloudy
1:55 AM 42.8 °F 39.3 °F 42.8 °F 100% 30.04 in 4.3 mi SSE 5.8 mph - N/A   Mostly Cloudy
2:55 AM 42.8 °F 39.3 °F 42.8 °F 100% 30.01 in 3.1 mi South 5.8 mph - N/A   Overcast
3:55 AM 41.0 °F 36.4 °F 39.2 °F 93% 29.98 in 3.1 mi SE 6.9 mph - N/A   Overcast
4:55 AM 41.0 °F 35.8 °F 39.2 °F 93% 29.98 in 2.5 mi SSE 8.1 mph - N/A   Overcast
5:55 AM 41.0 °F 37.1 °F 37.4 °F 87% 29.98 in 1.9 mi South 5.8 mph - N/A   Overcast
6:55 AM 41.0 °F 36.4 °F 35.6 °F 81% 29.98 in 1.2 mi SSE 6.9 mph - N/A   Overcast
7:55 AM 41.0 °F 35.8 °F 35.6 °F 81% 29.98 in 0.6 mi SSE 8.1 mph - N/A   Overcast
8:55 AM 41.0 °F 35.8 °F 39.2 °F 93% 29.98 in 0.0 mi SSE 8.1 mph - N/A Fog Fog
9:55 AM 41.0 °F 36.4 °F 41.0 °F 100% 29.98 in 0.0 mi South 6.9 mph - N/A Fog Fog
10:55 AM 41.0 °F 35.8 °F 41.0 °F 100% 29.98 in 0.0 mi South 8.1 mph - N/A Fog Fog
11:55 AM 41.0 °F 36.4 °F 41.0 °F 100% 29.98 in 0.1 mi South 6.9 mph - N/A Fog Fog
12:55 PM 42.8 °F 38.6 °F 42.8 °F 100% 29.98 in 0.2 mi South 6.9 mph - N/A Fog Fog
1:55 PM 42.8 °F 38.6 °F 42.8 °F 100% 29.98 in 0.3 mi SSE 6.9 mph - N/A Fog Fog
2:55 PM 42.8 °F 38.6 °F 42.8 °F 100% 29.95 in 0.5 mi SSE 6.9 mph - N/A Fog Fog
3:55 PM 42.8 °F 39.3 °F 42.8 °F 100% 29.95 in 0.5 mi SSE 5.8 mph - N/A Fog Fog
4:55 PM 42.8 °F 39.3 °F 42.8 °F 100% 29.95 in 0.3 mi SSE 5.8 mph - N/A Fog Fog
5:55 PM 42.8 °F 39.3 °F 42.8 °F 100% 29.95 in 0.2 mi SSE 5.8 mph - N/A Fog Fog
6:55 PM 42.8 °F 38.6 °F 42.8 °F 100% 29.98 in 0.1 mi South 6.9 mph - N/A Fog Fog
7:55 PM 42.8 °F 39.3 °F 42.8 °F 100% 29.98 in 0.1 mi South 5.8 mph - N/A Fog Fog
8:55 PM 42.8 °F 39.3 °F 42.8 °F 100% 29.98 in 0.1 mi South 5.8 mph - N/A Fog Fog
9:55 PM 42.8 °F 39.3 °F 42.8 °F 100% 29.98 in 0.1 mi SSE 5.8 mph - N/A Fog Fog
10:55 PM 42.8 °F 38.6 °F 42.8 °F 100% 29.98 in 0.1 mi SSE 6.9 mph - N/A Fog Fog
11:55 PM 42.8 °F 38.6 °F 42.8 °F 100% 29.98 in 0.1 mi SSE 6.9 mph - N/A Fog Fog